{"data":{"norad_id":69036,"epoch":"2026-09-20T01:32:13.481088Z","epoch_age_seconds":56964,"freshness":"FRESH","line1":"1 69036U 26101M   26263.06404492  .00011820  00000+0  36783-3 0  9993","line2":"2 69036  97.2828 116.5803 0002802  82.8635 277.2926 15.33447808 21113","mean_motion":15.33447808,"eccentricity":0.0002802,"inclination_deg":97.2828,"raan_deg":116.5803,"arg_perigee_deg":82.8635,"mean_anomaly_deg":277.2926,"bstar":0.00036783,"rev_number":2111,"period_min":93.906032698832,"perigee_km":463.61722301455,"apogee_km":467.4524167024,"semimajor_km":6843.6718198585,"source":"CELESTRAK","updated_at":"2026-09-20T09:00:44.060151Z"}}